Weather History for KCSG - February, 2013

Change the Weather History Date:

Saturday, February 16, 2013

  Actual Average Record
Temperature  
Mean Temperature 43 °F 51 °F  
Max Temperature 50 °F 62 °F 82 °F (1989)
Min Temperature 35 °F 40 °F 19 °F (1958)
Degree Days  
Heating Degree Days 22 14  
Month to date heating degree days 211 245  
Since 1 July heating degree days 1186 1628  
Cooling Degree Days 0 0  
Month to date cooling degree days 0 0  
Year to date cooling degree days 25 1  
Moisture  
Dew Point 21 °F    
Average Humidity 45    
Maximum Humidity 70    
Minimum Humidity 19    
Precipitation  
Precipitation T in 0.16 in 1.94 in (1990)
Month to date precipitation 7.52 2.45  
Year to date precipitation 10.74 6.30  
Snow  
Snow 0.00 in 0.00 in 0.00 in (2002)
Month to date snowfall 0.0 0.0  
Since 1 July snowfall 0.0 0.3  
Snow Depth -    
Sea Level Pressure  
Sea Level Pressure 30.06 in    
Wind  
Wind Speed 11 mph (NNW)    
Max Wind Speed 28 mph    
Max Gust Speed 35 mph    
Visibility 10 miles    
Events Rain    
T = Trace of Precipitation, MM = Missing Value Source: NWS Daily Summary

Daily Weather History Graph

Daily Weather History Graph

Search for Another Location

Airport or City:

Trip Planner

Search our weather history database for the weather conditions in past years. The results will help you decide how hot, cold, wet, or windy it might be!

Date:

Astronomy

Feb. 16, 2013 Rise Set
Actual Time 7:21 AM EST 6:26 PM EST
Civil Twilight 6:56 AM EST 6:51 PM EST
Nautical Twilight 6:27 AM EST 7:20 PM EST
Astronomical Twilight 5:58 AM EST 7:49 PM EST
Moon 10:58 AM EST (2/16) 12:02 AM EST (2/16)
Length of Visible Light 11h 55m
Length of Day
11h 05m
Waxing Crescent, 39% of the Moon is Illuminated
Feb 16
Waxing Crescent
Feb 17
First Quarter
Feb 25
Full
Mar 4
Last Quarter
Mar 11
New

Hourly Weather History & Observations

Time (EST) Temp. Windchill Dew Point Humidity Pressure Visibility Wind Dir Wind Speed Gust Speed Precip Events Conditions
12:51 AM 48.9 °F - 35.1 °F 59% 30.02 in 10.0 mi North 5.8 mph - N/A   Clear
1:51 AM 46.9 °F - 35.1 °F 63% 30.01 in 10.0 mi North 4.6 mph - N/A   Clear
2:51 AM 46.0 °F 44.8 °F 35.1 °F 66% 30.00 in 10.0 mi North 3.5 mph - N/A   Overcast
3:51 AM 46.0 °F 44.8 °F 35.1 °F 66% 30.00 in 10.0 mi NNW 3.5 mph - N/A   Overcast
4:51 AM 45.0 °F 42.6 °F 36.0 °F 71% 29.99 in 10.0 mi NW 4.6 mph - N/A   Overcast
5:51 AM 46.0 °F 43.9 °F 36.0 °F 68% 30.00 in 10.0 mi NW 4.6 mph - N/A   Overcast
6:51 AM 46.0 °F 44.8 °F 33.1 °F 61% 30.02 in 10.0 mi North 3.5 mph - 0.00 in   Overcast
7:51 AM 44.1 °F 42.5 °F 33.1 °F 65% 30.02 in 10.0 mi NNE 3.5 mph - 0.00 in Rain Light Rain
8:51 AM 44.1 °F 39.5 °F 30.0 °F 58% 30.04 in 10.0 mi North 8.1 mph - 0.00 in   Overcast
9:51 AM 45.0 °F 39.7 °F 28.9 °F 53% 30.05 in 10.0 mi NNW 10.4 mph - N/A   Partly Cloudy
10:51 AM 46.9 °F - 23.0 °F 39% 30.06 in 10.0 mi NNW 16.1 mph 24.2 mph N/A   Scattered Clouds
11:51 AM 48.0 °F - 17.1 °F 29% 30.06 in 10.0 mi NNW 24.2 mph 28.8 mph N/A   Scattered Clouds
12:51 PM 50.0 °F - 12.9 °F 23% 30.04 in 10.0 mi NW 23.0 mph 33.4 mph N/A   Scattered Clouds
1:51 PM 50.0 °F - 12.0 °F 22% 30.02 in 10.0 mi NW 18.4 mph 28.8 mph N/A   Scattered Clouds
2:51 PM 46.9 °F - 8.1 °F 21% 30.02 in 10.0 mi NNW 18.4 mph 27.6 mph N/A   Partly Cloudy
3:51 PM 48.0 °F - 9.0 °F 21% 30.04 in 10.0 mi NNW 16.1 mph 28.8 mph N/A   Scattered Clouds
4:51 PM 45.0 °F 37.6 °F 7.0 °F 21% 30.06 in 10.0 mi NNW 17.3 mph 28.8 mph N/A   Scattered Clouds
5:51 PM 45.0 °F 37.1 °F 7.0 °F 21% 30.08 in 10.0 mi NNW 19.6 mph 28.8 mph N/A   Partly Cloudy
6:51 PM 42.8 °F 35.1 °F 8.6 °F 25% 30.10 in 10.0 mi NNW 16.1 mph 21.9 mph N/A   Clear
7:51 PM 41.0 °F 35.8 °F 10.0 °F 28% 30.13 in 10.0 mi NNW 8.1 mph - N/A   Clear
8:51 PM 39.0 °F 36.8 °F 12.9 °F 34% 30.16 in 10.0 mi NNW 3.5 mph - N/A   Clear
9:51 PM 37.9 °F 32.1 °F 14.0 °F 38% 30.18 in 10.0 mi NNW 8.1 mph - N/A   Clear
10:51 PM 37.0 °F 31.6 °F 16.0 °F 42% 30.20 in 10.0 mi NNW 6.9 mph - N/A   Clear
11:51 PM 35.1 °F 29.3 °F 17.1 °F 48% 30.21 in 10.0 mi NW 6.9 mph - N/A   Clear